Temp
43 43 43 45 45 43 38 38 39 40 41 42 43 43 42 43 42 40 40 40 39 39 39 38 37 38 36 36 36 36 36 36 33 37 38 40 41 42 44 44 44 44 45
43 43 43 41 40 37 38 39 40 42 43 42 44 43 43 41 40 39 38 38 37 36 36 35 35 39 36 36 35 33 34 35 34 32 34 36 37 40 41 40 43 45 43
43 41 39 38 36 36 37 38 40 41 42 43 43 44 43 41 40 38 36 36 35 34 33 32 33 33 31 32 32 32 32 35 32 31 32 34 35 37 37 38 39 40 42
41 38 36 35 35 35 36 37 39 40 42 42 42 41 39 38 38 37 36 33 32 33 32 32 31 31 30 30 31 31 32 31 31 31 31 32 32 34 35 34 34 36 37
39 39 38 40 39 37 38 38 39 39 40 40 40 38 37 37 38 34 33 32 31 30 31 32 32 33 36 35 33 31 30 30 30 30 30 31 30 30 30 33 32 33 35
39 39 40 42 42 40 40 39 39 39 39 39 36 33 32 36 37 37 36 31 31 31 29 30 30 32 32 33 34 34 33 29 28 28 28 28 29 29 30 30 29 28 27
41 41 39 41 41 40 39 38 37 35 34 33 32 32 31 32 36 36 36 31 30 29 28 28 29 32 32 31 31 32 32 33 31 30 28 29 29 31 31 28 29 29 29
36 37 39 38 36 35 35 34 33 33 32 30 30 30 29 31 34 34 33 29 27 27 28 28 28 28 30 30 30 30 30 30 31 32 30 30 32 33 32 32 31 31 32
36 36 36 35 34 33 32 30 31 30 30 29 30 29 27 28 32 32 31 25 24 24 28 28 28 29 30 32 29 27 28 30 34 35 35 34 34 34 34 31 28 27 26
36 35 34 33 31 29 29 29 30 28 29 29 28 27 27 24 28 31 30 25 24 25 26 29 30 30 31 31 29 27 26 29 31 30 31 33 35 34 34 33 30 27 27
35 34 33 31 30 29 28 28 27 26 26 20 18 20 23 25 24 30 31 27 26 25 26 26 28 30 31 32 31 28 27 30 29 30 29 30 30 31 32 33 33 31 28
33 31 30 30 30 30 27 26 27 24 21 18 14 17 20 19 26 28 30 30 30 26 26 28 27 30 30 30 28 28 29 28 27 28 27 27 28 29 32 32 33 33 34
32 30 30 29 29 29 26 25 24 22 18 18 21 20 21 23 21 27 27 28 29 27 28 29 28 28 27 25 27 27 25 25 24 25 27 27 29 31 32 31 31 32 33
31 30 29 28 27 26 27 27 25 19 17 21 19 19 21 20 21 23 26 26 28 28 27 26 25 25 22 22 23 24 23 24 24 24 26 28 29 29 29 30 29 29 29
31 31 29 27 25 26 26 25 24 22 19 21 18 18 19 19 22 27 26 25 26 26 25 23 22 21 19 21 21 21 21 22 22 23 24 25 27 27 27 29 30 29 28
30 28 22 21 21 24 24 23 29 27 29 29 28 24 24 26 27 27 27 27 27 25 23 19 18 17 16 18 18 18 19 19 20 22 23 25 25 25 26 26 28 28 27
21 23 20 21 19 18 17 17 13 19 25 26 26 26 26 26 26 25 25 24 24 22 19 18 16 16 16 17 18 18 16 18 19 20 21 21 23 25 25 25 26 28 27
17 17 18 17 14 14 8 11 8 7 7 11 19 23 24 25 24 24 22 20 17 18 17 16 15 15 16 16 16 15 17 17 17 16 18 19 19 22 21 23 24 23 24
25 20 12 10 10 10 8 8 6 6 6 10 14 16 16 22 22 21 20 15 14 14 15 15 15 15 15 16 14 14 14 15 15 13 15 15 15 19 23 19 19 17 19
25 20 16 15 12 12 10 8 10 8 9 13 10 10 16 16 14 13 14 13 13 13 13 13 14 14 14 14 14 14 14 15 15 14 12 12 12 14 15 17 15 15 16
18 18 18 17 14 12 8 7 7 8 11 12 7 8 15 14 12 13 12 12 12 12 11 12 12 12 13 13 13 12 13 14 15 14 12 12 8 11 14 14 14 15 16
20 16 15 12 12 8 7 7 4 6 9 8 8 10 14 11 11 13 13 11 11 12 12 11 9 10 11 11 11 11 11 11 12 12 11 10 10 10 10 11 12 12 14
22 16 12 14 9 6 3 4 1 -1 5 4 5 9 10 10 10 12 12 10 11 11 11 10 8 9 10 9 9 10 10 9 9 8 9 7 9 9 8 11 11 12 12
16 16 18 11 3 4 -1 -1 -3 0 5 3 2 3 7 9 9 10 10 9 10 10 10 8 9 8 9 9 8 9 9 9 8 8 3 5 7 7 7 9 10 10 10
22 23 15 8 5 5 2 -1 -4 -5 -3 -0 0 3 7 8 11 11 11 10 10 9 10 9 8 8 9 8 7 6 5 5 6 5 7 5 4 4 3 5 3 7 7
25 24 21 12 5 6 6 3 -0 -5 -3 0 -1 2 5 6 9 9 12 12 11 10 10 9 9 8 8 10 9 8 4 3 4 4 4 7 5 3 3 3 3 5 4
MSLP
1019.14 1018.92 1018.79 1018.29 1017.44 1016.70 1016.18 1015.96 1016.55 1016.70 1016.54 1016.29 1015.98 1015.96 1015.97 1015.91 1015.89 1016.13 1016.43 1016.68 1016.75 1016.73 1016.75 1016.85 1016.89 1016.80 1016.57 1016.46 1016.43 1016.35 1016.34 1016.35 1016.02 1015.42 1015.35 1015.01 1014.68 1014.41 1014.23 1014.17 1014.14 1014.08 1013.99
1019.34 1018.93 1018.69 1018.28 1017.75 1017.02 1016.60 1016.32 1016.68 1016.95 1016.61 1016.26 1016.01 1016.30 1016.28 1016.11 1016.09 1016.19 1016.36 1016.49 1016.64 1016.70 1016.64 1016.63 1016.46 1016.21 1016.10 1016.07 1016.09 1016.06 1016.03 1015.92 1015.83 1015.28 1015.04 1014.81 1014.54 1014.21 1014.10 1013.99 1013.74 1013.53 1013.53
1019.17 1019.17 1018.99 1018.50 1018.03 1017.73 1016.98 1016.84 1016.92 1016.73 1016.59 1016.46 1016.65 1016.49 1016.23 1016.16 1016.16 1016.14 1016.23 1016.34 1016.43 1016.47 1016.49 1016.44 1016.34 1016.25 1016.16 1016.10 1015.93 1015.80 1015.68 1015.43 1015.28 1015.05 1014.67 1014.54 1014.33 1014.15 1013.94 1013.74 1013.52 1013.30 1013.09
1019.34 1019.15 1018.86 1018.86 1018.68 1018.29 1017.91 1017.23 1017.26 1017.24 1017.03 1017.06 1017.06 1017.01 1016.65 1016.42 1016.29 1016.20 1016.21 1016.31 1016.39 1016.39 1016.33 1016.24 1016.16 1016.04 1015.85 1015.65 1015.38 1015.14 1015.01 1014.86 1014.72 1014.45 1014.03 1013.83 1013.80 1013.60 1013.43 1013.33 1013.05 1012.88 1012.55
1019.16 1018.92 1018.68 1018.57 1018.55 1018.26 1018.26 1017.84 1017.41 1017.42 1017.47 1017.29 1017.11 1016.86 1016.55 1016.44 1016.24 1016.23 1016.33 1016.35 1016.31 1016.17 1015.94 1015.85 1015.70 1015.46 1015.06 1014.78 1014.55 1014.34 1014.38 1014.23 1014.04 1013.69 1013.35 1013.18 1013.05 1013.11 1012.88 1012.69 1012.31 1012.08 1011.71
1019.18 1019.01 1018.70 1018.38 1018.21 1018.47 1018.29 1018.04 1017.72 1017.46 1017.34 1017.26 1017.10 1016.99 1016.81 1016.52 1016.38 1016.41 1016.37 1016.35 1016.23 1016.03 1015.80 1015.48 1015.18 1014.79 1014.39 1014.10 1013.90 1013.74 1013.68 1013.47 1013.27 1013.08 1012.74 1012.42 1012.31 1012.40 1012.28 1012.15 1011.92 1011.87 1011.26
1019.37 1019.43 1019.11 1018.76 1018.26 1018.28 1018.05 1017.90 1017.80 1017.68 1017.60 1017.55 1017.35 1017.12 1017.01 1016.94 1016.78 1016.55 1016.31 1016.09 1015.87 1015.63 1015.41 1015.03 1014.56 1014.06 1013.68 1013.42 1013.19 1012.95 1012.73 1012.53 1012.28 1012.14 1011.75 1011.56 1011.39 1011.44 1011.61 1011.60 1011.39 1011.18 1010.75
1019.45 1019.04 1018.82 1018.69 1018.55 1018.38 1018.24 1018.16 1018.00 1017.82 1017.80 1017.76 1017.62 1017.51 1017.35 1017.04 1016.70 1016.36 1016.03 1015.73 1015.56 1015.32 1014.96 1014.42 1013.92 1013.39 1013.10 1012.79 1012.33 1011.90 1011.64 1011.39 1011.12 1010.91 1010.79 1010.61 1010.50 1010.52 1010.56 1010.51 1010.47 1010.40 1010.28
1019.51 1019.04 1019.13 1019.13 1018.79 1018.58 1018.47 1018.45 1018.28 1018.19 1018.08 1018.03 1017.86 1017.65 1017.45 1017.04 1016.66 1016.18 1015.74 1015.41 1015.16 1014.77 1014.28 1013.86 1013.42 1012.83 1012.37 1012.06 1011.54 1011.01 1010.59 1010.18 1009.80 1009.53 1009.31 1009.33 1009.33 1009.38 1009.50 1009.80 1009.75 1009.78 1009.39
1019.56 1019.35 1019.40 1019.29 1018.97 1018.83 1018.78 1018.66 1018.48 1018.43 1018.33 1018.20 1017.97 1017.72 1017.44 1017.02 1016.48 1015.90 1015.42 1014.98 1014.53 1014.00 1013.55 1013.00 1012.52 1012.06 1011.51 1011.07 1010.54 1010.04 1009.44 1008.99 1008.67 1008.42 1008.17 1008.04 1007.98 1008.12 1008.25 1008.48 1008.64 1008.58 1008.66
1019.55 1019.63 1019.52 1019.32 1019.12 1018.96 1018.88 1018.77 1018.66 1018.54 1018.41 1018.39 1018.19 1017.74 1017.32 1016.86 1016.23 1015.65 1015.08 1014.51 1014.06 1013.47 1012.85 1012.21 1011.75 1011.30 1010.86 1010.23 1009.80 1009.48 1008.97 1008.46 1007.89 1007.46 1007.22 1007.20 1007.18 1007.16 1007.17 1007.26 1007.46 1007.63 1007.67
1019.43 1019.58 1019.50 1019.31 1019.12 1019.00 1018.96 1018.76 1018.58 1018.54 1018.42 1018.24 1017.89 1017.42 1017.00 1016.51 1016.13 1015.47 1014.78 1014.17 1013.55 1012.92 1012.21 1011.58 1011.27 1010.92 1010.34 1009.86 1009.47 1008.99 1008.40 1007.94 1007.50 1006.94 1006.59 1006.35 1006.22 1006.09 1006.07 1006.24 1006.38 1006.55 1006.66
1019.36 1019.43 1019.37 1019.18 1019.04 1018.96 1018.88 1018.66 1018.50 1018.38 1018.29 1018.15 1017.79 1017.31 1016.67 1016.10 1015.80 1015.16 1014.44 1013.74 1013.05 1012.34 1011.67 1011.28 1011.06 1010.74 1010.24 1009.76 1009.25 1008.68 1008.18 1007.65 1007.14 1006.53 1006.01 1005.53 1005.29 1005.15 1005.22 1005.37 1005.52 1005.67 1005.83
1019.19 1019.23 1019.20 1019.15 1019.02 1018.84 1018.63 1018.45 1018.37 1018.24 1018.13 1017.94 1017.68 1017.25 1016.58 1016.05 1015.49 1014.75 1013.91 1013.29 1012.58 1011.78 1011.60 1011.37 1011.15 1010.78 1010.46 1009.96 1009.32 1008.76 1008.19 1007.59 1007.05 1006.39 1005.73 1005.08 1004.64 1004.48 1004.51 1004.64 1004.84 1005.05 1005.22
1019.04 1019.10 1019.19 1019.15 1018.98 1018.71 1018.48 1018.39 1018.32 1018.11 1018.01 1017.63 1017.40 1017.20 1016.50 1015.85 1015.31 1014.49 1013.86 1013.13 1012.37 1012.03 1011.62 1011.49 1011.25 1011.08 1010.59 1010.02 1009.55 1009.02 1008.40 1007.75 1007.09 1006.44 1005.68 1005.03 1004.50 1004.31 1004.27 1004.29 1004.39 1004.53 1004.65
1018.97 1019.13 1019.27 1019.22 1019.06 1018.92 1018.68 1018.42 1018.23 1018.05 1017.82 1017.61 1017.22 1016.86 1016.31 1015.91 1015.14 1014.48 1013.89 1013.23 1012.70 1012.29 1012.02 1011.94 1011.87 1011.69 1011.30 1010.67 1010.11 1009.50 1008.86 1008.25 1007.58 1006.82 1006.02 1005.34 1004.77 1004.40 1004.26 1004.28 1004.29 1004.30 1004.37
1019.09 1019.29 1019.39 1019.37 1019.29 1019.17 1018.99 1018.87 1018.76 1018.15 1017.98 1017.66 1017.30 1016.94 1016.44 1015.85 1015.21 1014.67 1014.13 1013.57 1013.21 1012.87 1012.67 1012.58 1012.51 1012.19 1011.81 1011.34 1010.77 1010.20 1009.68 1009.04 1008.35 1007.49 1006.71 1006.02 1005.29 1004.50 1004.23 1004.12 1004.11 1004.07 1004.19
1019.26 1019.34 1019.48 1019.54 1019.52 1019.39 1019.28 1019.13 1019.01 1019.03 1018.71 1018.11 1017.51 1017.20 1016.70 1016.07 1015.56 1015.13 1014.69 1014.20 1013.81 1013.55 1013.43 1013.30 1013.15 1012.84 1012.42 1011.98 1011.42 1010.90 1010.22 1009.54 1008.87 1008.23 1007.49 1006.80 1006.14 1005.53 1005.01 1004.58 1004.35 1004.35 1004.51
1019.15 1019.30 1019.59 1019.75 1019.71 1019.64 1019.54 1019.38 1019.24 1019.10 1018.88 1018.55 1017.95 1017.42 1017.04 1016.52 1016.09 1015.77 1015.48 1015.20 1014.91 1014.60 1014.29 1014.02 1013.78 1013.39 1012.96 1012.47 1011.95 1011.43 1010.92 1010.30 1009.73 1009.06 1008.36 1007.70 1007.07 1006.39 1005.78 1005.68 1005.36 1005.15 1005.04
1018.93 1019.01 1019.17 1019.63 1019.70 1019.70 1019.70 1019.61 1019.47 1019.29 1019.09 1018.79 1018.45 1018.03 1017.37 1016.89 1016.59 1016.38 1016.15 1015.96 1015.67 1015.43 1015.14 1014.77 1014.38 1013.99 1013.54 1012.97 1012.37 1011.86 1011.30 1010.79 1010.19 1009.74 1009.20 1008.54 1007.90 1007.38 1006.98 1006.52 1006.32 1006.05 1005.93
1019.09 1019.07 1019.07 1019.48 1019.68 1019.84 1019.87 1019.81 1019.69 1019.56 1019.40 1019.03 1018.74 1018.27 1017.84 1017.60 1017.33 1017.02 1016.76 1016.55 1016.33 1016.08 1015.82 1015.46 1015.02 1014.55 1014.03 1013.48 1012.97 1012.53 1011.96 1011.43 1010.81 1010.33 1009.86 1009.25 1008.61 1008.09 1007.70 1007.31 1006.91 1006.71 1006.65
1018.92 1019.33 1019.41 1019.51 1019.71 1019.87 1019.92 1019.88 1019.82 1019.72 1019.52 1019.26 1018.93 1018.46 1018.10 1017.95 1017.75 1017.42 1017.14 1016.99 1016.79 1016.57 1016.28 1015.94 1015.55 1015.08 1014.60 1014.15 1013.63 1013.15 1012.63 1012.16 1011.59 1010.95 1010.48 1010.00 1009.47 1008.89 1008.41 1008.09 1007.85 1007.63 1007.43
1018.79 1019.31 1019.37 1019.47 1019.67 1019.86 1019.96 1020.01 1020.02 1019.92 1019.71 1019.46 1019.20 1018.89 1018.59 1018.36 1018.06 1017.73 1017.54 1017.33 1017.07 1016.85 1016.54 1016.16 1015.79 1015.35 1014.94 1014.57 1014.16 1013.75 1013.30 1012.81 1012.35 1011.81 1011.26 1010.80 1010.18 1009.82 1009.29 1008.98 1008.71 1008.52 1008.32
1018.87 1019.09 1019.20 1019.36 1019.59 1019.76 1019.94 1020.07 1020.11 1020.03 1019.91 1019.69 1019.45 1019.20 1018.90 1018.53 1018.26 1017.98 1017.75 1017.55 1017.33 1017.10 1016.82 1016.56 1016.20 1015.88 1015.39 1014.88 1014.42 1013.93 1013.60 1013.10 1012.53 1012.04 1011.77 1011.31 1010.97 1010.60 1010.19 1009.89 1009.59 1009.35 1009.17
1018.56 1018.62 1018.90 1019.18 1019.41 1019.60 1019.79 1019.95 1020.03 1020.06 1019.99 1019.89 1019.68 1019.38 1018.77 1018.53 1018.34 1018.12 1017.91 1017.72 1017.54 1017.32 1017.07 1016.82 1016.56 1016.17 1015.73 1015.30 1014.77 1014.36 1013.93 1013.38 1012.91 1012.46 1012.05 1011.78 1011.60 1011.31 1011.09 1010.84 1010.53 1010.20 1009.99
1018.24 1018.23 1018.52 1018.81 1019.02 1019.23 1019.49 1019.65 1019.75 1019.87 1019.93 1019.88 1019.52 1019.12 1018.88 1018.64 1018.40 1018.19 1018.00 1017.83 1017.66 1017.48 1017.23 1017.01 1016.75 1016.42 1015.98 1015.53 1015.17 1014.78 1014.35 1013.90 1013.46 1013.11 1012.77 1012.32 1012.21 1012.16 1011.88 1011.64 1011.30 1011.10 1010.90
Wind_Speed
7 7 9 12 12 13 6 2 3 2 2 1 2 3 5 5 5 2 3 5 5 4 3 5 5 6 4 4 4 4 5 5 8 7 4 4 4 5 5 4 3 3 2
7 8 10 10 9 7 3 4 2 4 3 1 7 6 5 5 3 3 4 3 4 5 5 5 6 5 5 4 3 5 5 5 6 11 3 3 4 3 3 4 4 3 3
6 7 7 9 7 6 6 7 6 5 6 7 6 4 7 5 5 4 3 4 4 4 4 4 5 4 4 3 5 5 5 6 5 5 7 4 5 3 4 5 5 4 4
5 5 6 7 6 5 6 6 6 7 6 5 6 8 6 6 5 5 3 1 2 3 5 5 6 6 8 8 8 9 8 8 8 8 9 7 6 6 5 7 8 5 9
4 4 4 3 4 6 7 8 8 9 9 8 8 8 5 4 4 1 0 3 5 6 7 6 7 11 19 17 10 9 8 7 8 9 10 9 8 6 9 8 9 9 8
5 6 5 4 3 6 5 6 6 7 7 9 8 6 6 4 5 0 4 4 6 8 8 9 8 15 14 19 20 21 16 10 11 9 9 11 11 6 4 6 8 7 11
4 6 7 7 5 5 5 5 6 6 5 5 5 5 5 5 7 10 13 6 7 8 9 9 10 8 14 10 15 20 19 21 16 11 12 11 12 10 9 8 10 9 10
4 2 5 6 6 5 5 5 5 4 5 5 5 4 4 5 13 16 17 8 7 8 9 10 10 11 11 14 13 12 12 12 13 10 13 13 12 10 11 12 12 10 8
5 5 5 5 5 5 6 6 4 4 4 4 3 5 6 7 15 17 15 6 7 9 9 9 10 13 16 21 14 13 12 12 15 23 24 23 23 22 17 7 9 9 9
5 5 5 5 5 6 5 5 3 3 2 3 6 5 9 7 14 18 15 6 8 6 8 10 17 16 20 20 13 11 12 12 11 12 10 14 17 18 22 14 8 9 8
5 5 5 5 5 4 4 3 4 3 4 4 5 6 7 8 9 18 20 9 7 8 8 8 7 14 19 20 18 10 11 13 11 10 8 8 7 9 9 10 11 9 9
3 4 5 5 4 3 4 4 4 4 4 5 5 5 4 6 11 16 20 19 17 9 9 8 4 17 18 18 14 16 18 11 6 7 6 7 8 9 9 9 11 10 11
2 4 4 4 4 3 3 5 4 4 2 5 5 7 8 5 5 17 19 18 16 11 7 9 10 16 17 11 15 17 10 5 5 6 6 7 7 8 9 7 8 11 10
4 4 4 4 5 4 3 3 3 3 3 4 5 7 7 6 6 8 6 8 13 10 4 5 6 8 8 7 8 8 6 6 6 6 6 7 7 6 6 5 6 6 6
5 4 3 3 4 4 3 3 2 3 2 5 4 4 7 7 9 17 14 10 7 6 4 2 5 6 7 7 7 7 7 7 7 6 6 5 4 3 4 3 3 4 5
4 2 2 3 3 3 3 4 6 8 11 13 15 9 7 15 20 19 19 17 15 12 4 5 5 6 6 7 7 8 7 9 8 7 6 5 4 3 3 2 3 4 4
2 3 2 2 2 2 2 3 4 6 10 12 14 15 16 17 18 18 19 15 14 10 5 5 6 6 7 7 7 7 7 8 9 7 6 6 6 4 2 3 3 4 4
1 3 2 2 2 2 2 3 1 2 3 5 7 13 15 18 17 17 18 11 6 8 6 6 6 6 7 7 7 7 8 7 8 8 7 6 6 5 4 3 3 1 1
1 2 2 2 2 2 1 3 2 2 2 4 3 5 7 15 14 14 15 6 6 6 7 6 6 6 7 6 6 6 7 7 7 7 7 7 6 5 4 4 4 4 3
3 4 2 1 2 3 2 3 3 3 3 3 3 3 6 6 6 6 6 6 5 5 6 6 6 6 6 7 7 7 7 7 7 7 6 5 5 4 4 5 4 3 4
2 2 2 2 2 2 2 2 2 2 3 3 3 3 7 4 5 5 5 5 5 6 6 6 5 6 6 6 7 7 7 7 7 6 6 5 5 4 4 4 3 4 3
1 1 1 1 1 2 3 2 2 2 3 3 3 3 7 3 3 4 4 3 4 4 4 4 5 5 6 6 7 7 7 7 7 7 6 5 5 5 4 3 4 4 4
1 1 2 2 1 2 2 2 2 2 3 3 3 3 2 3 3 3 4 4 4 4 4 4 5 5 5 5 5 5 6 6 6 5 5 5 5 5 4 4 4 4 4
2 3 3 2 1 2 1 3 3 3 3 3 3 3 2 2 3 3 3 3 3 4 4 4 4 6 6 6 5 5 5 6 5 4 5 4 5 5 4 4 4 5 4
3 3 2 2 2 3 2 3 3 3 3 2 3 2 2 2 3 3 3 3 3 3 4 4 4 6 7 9 9 10 10 11 8 7 4 4 6 7 4 3 4 3 5
3 3 2 2 2 2 3 3 3 3 3 3 3 2 2 3 2 2 3 3 3 3 5 4 6 8 9 7 9 11 11 11 9 9 5 5 6 5 4 6 6 4 4
Wind_Direction
324 316 314 312 309 305 280 217 171 278 290 65 89 62 15 357 358 337 259 260 258 271 272 260 258 248 243 239 237 237 245 232 259 271 235 251 254 246 264 271 264 254 270
310 319 316 311 315 313 23 50 9 344 353 26 27 9 345 333 326 291 283 292 284 285 279 285 274 289 284 271 261 256 253 251 262 275 237 240 243 270 267 277 277 275 259
320 320 321 335 345 4 37 39 24 359 21 14 351 288 260 297 303 299 278 282 288 286 293 301 299 309 295 277 271 267 257 261 246 253 261 227 238 235 266 264 265 261 260
321 351 10 6 10 27 2 22 17 3 11 346 328 310 312 316 309 302 309 1 315 287 281 273 268 264 268 268 266 265 260 255 255 254 261 257 232 236 239 255 261 243 259
348 12 25 37 354 360 354 350 358 359 345 323 311 308 326 311 304 290 203 299 298 296 291 283 278 276 286 284 280 276 267 259 261 261 262 261 251 237 237 246 252 263 252
7 351 330 306 332 355 325 307 285 275 292 307 309 326 320 329 311 245 321 294 278 277 283 289 283 287 285 283 281 280 271 263 259 256 258 256 256 244 237 246 256 261 273
40 13 4 356 344 311 310 311 316 315 321 316 315 344 348 337 335 319 313 294 286 286 288 284 284 281 288 283 281 281 279 275 268 264 261 251 251 240 241 230 242 239 249
44 315 303 324 331 339 350 347 335 342 338 329 326 341 336 318 326 321 314 300 288 283 277 279 281 285 285 286 281 274 263 255 252 246 243 251 251 244 232 234 240 249 255
276 312 317 324 336 342 347 341 332 334 323 336 332 325 321 309 319 317 317 300 285 275 282 286 281 283 281 291 287 278 271 266 260 261 256 246 247 243 236 230 232 236 244
324 328 326 335 348 349 347 333 315 322 342 325 319 318 314 307 314 321 323 303 290 289 286 284 283 282 286 294 289 277 269 268 267 260 250 255 251 244 240 236 232 233 231
328 329 337 342 343 349 333 329 327 335 324 323 313 303 300 305 309 322 324 314 299 295 287 291 285 295 308 309 308 298 288 293 279 270 239 244 239 235 231 229 229 232 242
311 320 322 327 337 344 344 327 325 324 319 310 300 297 281 283 305 319 323 318 310 301 295 290 304 323 322 322 319 307 304 302 286 275 244 244 237 231 226 225 224 226 231
285 298 302 320 321 324 328 317 312 325 312 312 313 319 317 314 302 311 313 313 316 303 302 326 347 346 340 331 328 329 324 295 283 279 266 258 243 239 234 224 223 229 228
264 281 299 305 300 298 291 298 313 307 305 307 313 316 316 317 317 311 314 316 313 305 344 348 332 335 327 320 329 329 326 317 311 293 279 269 260 237 221 207 212 214 228
263 285 304 287 292 290 296 302 291 278 246 320 297 294 321 324 322 330 337 331 328 348 337 333 360 350 342 344 344 341 336 336 335 321 310 301 302 236 225 207 211 192 219
275 295 300 296 303 313 315 314 326 338 339 337 335 336 326 331 330 343 346 341 6 6 13 11 358 348 346 336 345 344 345 345 340 333 331 333 314 273 240 230 212 215 220
250 293 306 310 307 313 328 322 322 328 331 344 346 347 344 340 348 356 357 360 19 22 20 14 357 350 346 343 343 346 346 340 332 339 345 346 341 338 250 230 217 218 221
263 251 224 252 289 328 321 295 306 307 315 319 337 347 351 350 358 7 11 7 10 17 16 9 355 349 346 343 346 345 342 346 350 345 349 351 350 2 359 12 39 76 74
324 287 233 295 311 303 313 316 300 305 310 304 324 339 332 351 3 10 18 17 4 6 4 4 355 349 345 341 344 344 339 344 346 342 351 354 355 353 20 21 22 34 75
327 315 226 294 320 336 340 327 330 325 321 327 328 318 336 350 1 1 8 7 8 5 357 357 351 348 343 344 346 347 347 349 356 354 341 344 353 360 19 25 23 41 46
307 317 346 357 344 328 304 299 298 305 309 316 298 301 345 357 345 353 3 4 6 359 353 350 342 345 348 350 352 349 350 349 348 353 345 351 351 6 6 23 34 41 65
257 289 359 316 309 336 306 301 318 313 301 312 314 323 357 357 342 352 358 352 350 348 343 344 339 344 351 349 346 345 346 348 347 349 349 350 356 4 11 32 30 31 28
209 208 311 303 302 315 338 339 327 313 294 301 309 327 337 338 338 349 358 344 350 349 345 349 346 350 350 346 343 345 344 340 330 332 354 348 5 4 15 33 28 29 32
261 248 266 284 315 318 307 300 303 299 288 294 309 305 310 322 331 341 343 336 345 346 347 348 348 354 352 355 344 351 350 341 334 348 6 13 17 7 17 25 26 34 39
269 259 275 264 280 275 290 287 290 288 284 271 293 296 301 311 334 336 337 344 348 353 356 355 351 348 359 359 2 2 357 3 10 354 3 28 35 22 24 26 17 26 30
285 271 271 264 272 254 239 255 266 263 266 270 260 257 265 294 297 314 321 331 345 350 355 357 357 1 360 2 3 8 7 8 9 8 6 34 37 20 22 30 23 32 33